Location: Newark
(45.5167°N, 11.1667°E)
Time: 19:30:03
(UTC+00:00)

Explorer 7 - Pass Details

Date: 18 December 2019
Orbit: 485 x 679 km, 50.3° (Epoch: 24 January)

Event Time Altitude Azimuth Distance (km) Brightness Sun altitude
Rises 13:48:03 0° 261° (W) 2,937 11.3 12.5°
Reaches altitude 10° 13:50:22 10° 265° (W) 2,054 10.5 12.2°
Maximum altitude 13:55:04 58° 345° (NNW) 777 7.6 11.7°
Drops below altitude 10° 13:59:56 10° 65° (ENE) 2,117 9.3 11.2°
Sets 14:02:22 0° 70° (ENE) 3,036 10.1 11.0°
